This demonstration page uses our WeatherBlox Daily Observations layout. Learn more.

Left ArrowRight Arrow

41.55636, -103.73856

Hourly Observations for December 30, 2018

Temp ( °F °C ) Dew Point ( °F °C ) Humidity (%) Winds ( mph kmh ) Pressure ( in mb ) Visibility ( mi km ) Precip ( " mm )
5:58 pm 17:58 Clear 27 -2.8 11 -11.4 52 52 W 18 30 30.10 1019 10 16 N/A
6:58 pm 18:58 Clear 28 -2.3 10 -12 48 48 W 23 37 30.08 1019 10 16 N/A
7:58 pm 19:58 Partly Cloudy 27 -2.7 13 -10.6 55 55 W 15 24 30.08 1019 10 16 N/A
8:58 pm 20:58 Mostly Clear 29 -1.7 13 -10.5 51 51 W 23 37 30.04 1017 10 16 N/A
9:58 pm 21:58 Clear 29 -1.6 15 -9.7 54 54 W 23 37 29.98 1015 10 16 N/A
10:58 pm 22:58 Clear 30 -1.2 15 -9.4 54 54 W 22 35 29.94 1014 10 16 N/A
11:58 pm 23:58 Clear 30 -1.1 16 -9 55 55 W 18 30 29.94 1014 10 16 N/A
12:58 am 00:58 Clear 30 -0.9 17 -8.6 56 56 W 18 30 29.91 1013 10 16 N/A
1:58 am 01:58 Clear 31 -0.4 17 -8.5 55 55 W 20 31 29.87 1012 10 16 N/A
2:58 am 02:58 Clear 30 -1.3 17 -8.6 58 58 W 15 24 29.88 1012 10 16 N/A
3:58 am 03:58 Clear 31 -0.8 17 -8.3 57 57 W 17 28 29.83 1010 10 16 N/A
4:58 am 04:58 Clear 31 -0.4 18 -8 57 57 W 23 37 29.81 1010 10 16 N/A
5:58 am 05:58 Clear 29 -1.6 17 -8.3 61 61 W 13 20 29.83 1010 10 16 N/A
6:58 am 06:58 Clear 32 0 17 -8.2 54 54 W 18 30 29.79 1009 10 16 N/A
7:58 am 07:58 Sunny 31 -0.3 17 -8.1 56 56 W 20 31 29.79 1009 10 16 N/A
8:58 am 08:58 Sunny 36 2 18 -7.6 49 49 W 21 33 29.78 1008 10 16 N/A
9:58 am 09:58 Sunny 40 4.4 19 -7.3 43 43 W 22 35 29.75 1007 10 16 N/A
10:58 am 10:58 Sunny 41 5.1 19 -7.4 40 40 W 18 30 29.69 1006 10 16 N/A
11:58 am 11:58 Sunny 42 5.4 19 -7.3 40 40 W 26 43 29.66 1004 10 16 N/A
12:58 pm 12:58 Mostly Cloudy 40 4.6 20 -6.8 44 44 W 16 26 29.64 1004 10 16 N/A
1:58 pm 13:58 Mostly Cloudy 40 4.4 20 -6.4 46 46 WNW 10 17 29.62 1003 10 16 N/A
2:58 pm 14:58 Mostly Sunny 39 4.1 20 -6.5 46 46 WNW 20 31 29.63 1004 10 16 N/A
3:58 pm 15:58 Mostly Cloudy 37 2.8 20 -6.9 49 49 NW 24 39 29.63 1004 10 16 N/A
4:58 pm 16:58 Mostly Cloudy 34 1.3 20 -6.6 56 56 NW 17 28 29.64 1004 10 16 N/A

Powered by AerisWeather